Time,TemperatureF,DewpointF,PressureIn,WindDirection,WindDirectionDegrees,WindSpeedMPH,WindSpeedGustMPH,Humidity,HourlyPrecipIn,Conditions,Clouds,dailyrainin,SoftwareType,DateUTC
2013-05-18 00:09:00,67.3,64.0,30.04,ESE,104,0.0,0.0,88,0.00,,,0.00,weatherlink.com 1.10,2013-05-18 04:09:00,
2013-05-18 00:24:00,67.1,63.0,30.04,ESE,104,0.0,0.0,87,0.00,,,0.00,weatherlink.com 1.10,2013-05-18 04:24:00,
2013-05-18 00:39:00,67.0,63.0,30.04,ESE,104,0.0,0.0,87,0.00,,,0.00,weatherlink.com 1.10,2013-05-18 04:39:00,
2013-05-18 00:54:00,66.8,63.0,30.04,ESE,104,0.0,0.0,88,0.00,,,0.00,weatherlink.com 1.10,2013-05-18 04:54:00,
2013-05-18 01:09:00,66.6,63.0,30.04,ESE,104,0.0,0.0,89,0.00,,,0.00,weatherlink.com 1.10,2013-05-18 05:09:00,
2013-05-18 01:24:00,66.3,63.0,30.04,ESE,104,0.0,0.0,89,0.00,,,0.00,weatherlink.com 1.10,2013-05-18 05:24:00,
2013-05-18 01:39:00,66.3,63.0,30.03,ESE,104,0.0,0.0,89,0.00,,,0.00,weatherlink.com 1.10,2013-05-18 05:39:00,
2013-05-18 01:54:00,66.3,63.0,30.04,ESE,104,0.0,0.0,89,0.00,,,0.00,weatherlink.com 1.10,2013-05-18 05:54:00,
2013-05-18 02:09:00,66.3,63.0,30.03,ESE,104,0.0,0.0,89,0.00,,,0.00,weatherlink.com 1.10,2013-05-18 06:09:00,
2013-05-18 02:24:00,66.2,63.0,30.03,ESE,104,0.0,0.0,89,0.00,,,0.00,weatherlink.com 1.10,2013-05-18 06:24:00,
2013-05-18 02:39:00,65.9,63.0,30.03,ESE,104,0.0,0.0,90,0.00,,,0.00,weatherlink.com 1.10,2013-05-18 06:39:00,
2013-05-18 02:54:00,65.4,63.0,30.03,ESE,104,0.0,0.0,90,0.00,,,0.00,weatherlink.com 1.10,2013-05-18 06:54:00,
2013-05-18 03:09:00,64.8,63.0,30.03,ESE,104,0.0,0.0,92,0.00,,,0.00,weatherlink.com 1.10,2013-05-18 07:09:00,
2013-05-18 03:24:00,63.8,62.0,30.03,ESE,104,1.0,2.0,94,0.00,,,0.00,weatherlink.com 1.10,2013-05-18 07:24:00,
2013-05-18 03:39:00,63.2,62.0,30.03,ESE,104,0.0,0.0,95,0.00,,,0.00,weatherlink.com 1.10,2013-05-18 07:39:00,
2013-05-18 03:54:00,63.0,62.0,30.03,ESE,104,0.0,0.0,95,0.00,,,0.00,weatherlink.com 1.10,2013-05-18 07:54:00,
2013-05-18 04:09:00,62.9,62.0,30.03,ESE,104,0.0,0.0,95,0.00,,,0.00,weatherlink.com 1.10,2013-05-18 08:09:00,
2013-05-18 04:24:00,62.8,62.0,30.03,ESE,104,0.0,0.0,96,0.00,,,0.00,weatherlink.com 1.10,2013-05-18 08:24:00,
2013-05-18 04:39:00,62.8,62.0,30.03,ESE,104,0.0,0.0,96,0.00,,,0.00,weatherlink.com 1.10,2013-05-18 08:39:00,
2013-05-18 04:54:00,62.8,62.0,30.03,ESE,104,0.0,0.0,96,0.00,,,0.00,weatherlink.com 1.10,2013-05-18 08:54:00,
2013-05-18 05:09:00,62.8,62.0,30.03,ESE,104,0.0,1.0,96,0.00,,,0.00,weatherlink.com 1.10,2013-05-18 09:09:00,
2013-05-18 05:24:00,62.9,62.0,30.04,ESE,104,0.0,0.0,96,0.00,,,0.00,weatherlink.com 1.10,2013-05-18 09:24:00,
2013-05-18 05:39:00,63.0,62.0,30.04,ESE,104,0.0,0.0,96,0.00,,,0.00,weatherlink.com 1.10,2013-05-18 09:39:00,
2013-05-18 05:54:00,63.0,62.0,30.04,ESE,104,0.0,0.0,96,0.00,,,0.00,weatherlink.com 1.10,2013-05-18 09:54:00,
2013-05-18 06:09:00,62.9,62.0,30.04,ESE,104,0.0,0.0,96,0.00,,,0.00,weatherlink.com 1.10,2013-05-18 10:09:00,
2013-05-18 06:24:00,62.8,62.0,30.05,ESE,104,0.0,0.0,96,0.00,,,0.00,weatherlink.com 1.10,2013-05-18 10:24:00,
2013-05-18 06:39:00,62.8,62.0,30.06,ESE,104,0.0,0.0,97,0.00,,,0.00,weatherlink.com 1.10,2013-05-18 10:39:00,
2013-05-18 06:54:00,63.1,62.0,30.07,ESE,104,0.0,1.0,97,0.00,,,0.00,weatherlink.com 1.10,2013-05-18 10:54:00,
2013-05-18 07:09:00,63.3,62.0,30.07,ESE,104,0.0,0.0,96,0.00,,,0.00,weatherlink.com 1.10,2013-05-18 11:09:00,
2013-05-18 07:24:00,63.5,63.0,30.08,SSW,199,0.0,1.0,97,0.00,,,0.00,weatherlink.com 1.10,2013-05-18 11:24:00,
2013-05-18 07:39:00,63.6,63.0,30.08,SSW,200,0.0,0.0,97,0.00,,,0.00,weatherlink.com 1.10,2013-05-18 11:39:00,
2013-05-18 07:54:00,63.8,63.0,30.09,SSW,201,0.0,3.0,97,0.00,,,0.00,weatherlink.com 1.10,2013-05-18 11:54:00,
2013-05-18 08:09:00,63.4,63.0,30.09,SSW,201,0.0,1.0,97,0.01,,,0.01,weatherlink.com 1.10,2013-05-18 12:09:00,
2013-05-18 08:24:00,63.0,62.0,30.09,SSW,201,0.0,3.0,97,0.02,,,0.02,weatherlink.com 1.10,2013-05-18 12:24:00,
2013-05-18 08:39:00,62.6,62.0,30.08,SSW,201,0.0,1.0,98,0.04,,,0.04,weatherlink.com 1.10,2013-05-18 12:39:00,
2013-05-18 08:55:00,62.3,62.0,30.09,SSW,201,0.0,1.0,99,0.11,,,0.11,weatherlink.com 1.10,2013-05-18 12:55:00,
2013-05-18 09:10:00,62.2,62.0,30.10,SE,129,0.0,1.0,100,0.10,,,0.11,weatherlink.com 1.10,2013-05-18 13:10:00,
2013-05-18 09:25:00,62.3,62.0,30.11,NW,308,0.0,1.0,100,0.13,,,0.15,weatherlink.com 1.10,2013-05-18 13:25:00,
2013-05-18 09:40:00,62.2,62.0,30.11,NW,308,0.0,0.0,100,0.13,,,0.17,weatherlink.com 1.10,2013-05-18 13:40:00,
2013-05-18 09:55:00,62.2,62.0,30.11,NE,50,0.0,0.0,100,0.07,,,0.18,weatherlink.com 1.10,2013-05-18 13:55:00,
2013-05-18 10:10:00,62.5,63.0,30.11,ENE,62,0.0,2.0,100,0.07,,,0.18,weatherlink.com 1.10,2013-05-18 14:10:00,
2013-05-18 10:25:00,62.9,63.0,30.11,ENE,64,0.0,0.0,100,0.03,,,0.18,weatherlink.com 1.10,2013-05-18 14:25:00,
2013-05-18 10:40:00,63.3,63.0,30.11,ENE,64,0.0,1.0,100,0.01,,,0.18,weatherlink.com 1.10,2013-05-18 14:40:00,
2013-05-18 10:55:00,63.5,64.0,30.11,ENE,64,0.0,1.0,100,0.00,,,0.18,weatherlink.com 1.10,2013-05-18 14:55:00,
2013-05-18 11:10:00,63.7,64.0,30.11,NE,35,0.0,1.0,100,0.00,,,0.18,weatherlink.com 1.10,2013-05-18 15:10:00,
2013-05-18 11:25:00,64.0,64.0,30.11,NE,35,0.0,1.0,100,0.01,,,0.19,weatherlink.com 1.10,2013-05-18 15:25:00,
2013-05-18 11:40:00,64.2,64.0,30.10,NE,35,0.0,1.0,100,0.01,,,0.19,weatherlink.com 1.10,2013-05-18 15:40:00,
2013-05-18 11:55:00,64.5,65.0,30.10,NE,35,0.0,0.0,100,0.01,,,0.19,weatherlink.com 1.10,2013-05-18 15:55:00,
2013-05-18 12:10:00,64.5,65.0,30.11,NE,35,0.0,2.0,100,0.01,,,0.19,weatherlink.com 1.10,2013-05-18 16:10:00,
2013-05-18 12:25:00,64.7,65.0,30.11,NE,35,1.0,1.0,100,0.00,,,0.19,weatherlink.com 1.10,2013-05-18 16:25:00,
2013-05-18 12:40:00,64.9,65.0,30.10,NE,35,0.0,1.0,100,0.00,,,0.19,weatherlink.com 1.10,2013-05-18 16:40:00,
2013-05-18 12:55:00,65.4,65.0,30.10,NE,35,0.0,2.0,100,0.00,,,0.19,weatherlink.com 1.10,2013-05-18 16:55:00,
2013-05-18 13:10:00,66.1,66.0,30.09,NE,35,0.0,2.0,100,0.00,,,0.19,weatherlink.com 1.10,2013-05-18 17:10:00,
2013-05-18 13:25:00,66.4,66.0,30.09,NE,35,0.0,3.0,98,0.00,,,0.19,weatherlink.com 1.10,2013-05-18 17:25:00,
2013-05-18 13:40:00,66.6,66.0,30.09,NE,35,2.0,3.0,98,0.00,,,0.19,weatherlink.com 1.10,2013-05-18 17:40:00,
2013-05-18 13:55:00,66.7,66.0,30.08,East,84,0.0,3.0,99,0.00,,,0.19,weatherlink.com 1.10,2013-05-18 17:55:00,
2013-05-18 14:10:00,66.7,66.0,30.07,East,83,0.0,2.0,97,0.00,,,0.19,weatherlink.com 1.10,2013-05-18 18:10:00,
2013-05-18 14:25:00,66.7,66.0,30.07,ESE,108,0.0,4.0,98,0.00,,,0.19,weatherlink.com 1.10,2013-05-18 18:25:00,
2013-05-18 14:40:00,67.1,67.0,30.07,ESE,104,0.0,5.0,98,0.00,,,0.19,weatherlink.com 1.10,2013-05-18 18:40:00,
2013-05-18 14:55:00,66.9,66.0,30.07,ESE,107,0.0,3.0,98,0.00,,,0.19,weatherlink.com 1.10,2013-05-18 18:55:00,
2013-05-18 15:10:00,66.8,66.0,30.07,ESE,107,0.0,2.0,98,0.00,,,0.19,weatherlink.com 1.10,2013-05-18 19:10:00,
2013-05-18 15:25:00,66.7,66.0,30.07,ENE,72,0.0,5.0,98,0.00,,,0.19,weatherlink.com 1.10,2013-05-18 19:25:00,
2013-05-18 15:40:00,66.4,66.0,30.07,ESE,104,2.0,3.0,99,0.01,,,0.20,weatherlink.com 1.10,2013-05-18 19:40:00,
2013-05-18 15:55:00,66.1,66.0,30.07,ESE,109,0.0,2.0,99,0.01,,,0.20,weatherlink.com 1.10,2013-05-18 19:55:00,
2013-05-18 16:10:00,66.1,66.0,30.06,ESE,102,0.0,1.0,100,0.01,,,0.20,weatherlink.com 1.10,2013-05-18 20:10:00,
2013-05-18 16:25:00,66.6,66.0,30.06,NNE,21,1.0,5.0,98,0.01,,,0.20,weatherlink.com 1.10,2013-05-18 20:25:00,
2013-05-18 16:40:00,67.0,66.0,30.05,ESE,112,2.0,4.0,97,0.00,,,0.20,weatherlink.com 1.10,2013-05-18 20:40:00,
2013-05-18 16:55:00,67.3,66.0,30.05,ESE,104,1.0,4.0,96,0.00,,,0.20,weatherlink.com 1.10,2013-05-18 20:55:00,
2013-05-18 17:10:00,67.6,66.0,30.05,ESE,102,0.0,2.0,95,0.00,,,0.20,weatherlink.com 1.10,2013-05-18 21:10:00,
2013-05-18 17:25:00,67.8,66.0,30.04,ESE,113,0.0,4.0,94,0.00,,,0.20,weatherlink.com 1.10,2013-05-18 21:25:00,
2013-05-18 17:40:00,67.8,66.0,30.04,ESE,114,2.0,5.0,94,0.00,,,0.20,weatherlink.com 1.10,2013-05-18 21:40:00,
2013-05-18 17:55:00,67.8,66.0,30.04,ESE,111,1.0,5.0,94,0.00,,,0.20,weatherlink.com 1.10,2013-05-18 21:55:00,
2013-05-18 18:10:00,67.9,66.0,30.04,ESE,121,1.0,3.0,94,0.00,,,0.20,weatherlink.com 1.10,2013-05-18 22:10:00,
2013-05-18 18:25:00,68.1,66.0,30.05,East,94,0.0,3.0,94,0.00,,,0.20,weatherlink.com 1.10,2013-05-18 22:25:00,
2013-05-18 18:40:00,68.1,66.0,30.05,East,89,2.0,3.0,94,0.00,,,0.20,weatherlink.com 1.10,2013-05-18 22:40:00,
2013-05-18 18:55:00,67.8,66.0,30.05,ENE,72,0.0,2.0,94,0.00,,,0.20,weatherlink.com 1.10,2013-05-18 22:55:00,
2013-05-18 19:10:00,67.6,66.0,30.05,ENE,72,0.0,1.0,95,0.00,,,0.20,weatherlink.com 1.10,2013-05-18 23:10:00,
2013-05-18 19:25:00,67.6,66.0,30.05,ENE,69,0.0,2.0,95,0.00,,,0.20,weatherlink.com 1.10,2013-05-18 23:25:00,
2013-05-18 19:40:00,67.7,66.0,30.06,ENE,69,0.0,0.0,95,0.00,,,0.20,weatherlink.com 1.10,2013-05-18 23:40:00,
2013-05-18 19:55:00,67.6,67.0,30.06,ENE,69,0.0,0.0,96,0.00,,,0.20,weatherlink.com 1.10,2013-05-18 23:55:00,
2013-05-18 20:10:00,67.4,66.0,30.06,ENE,69,0.0,0.0,96,0.00,,,0.20,weatherlink.com 1.10,2013-05-19 00:10:00,
2013-05-18 20:25:00,67.2,66.0,30.06,ENE,69,0.0,0.0,97,0.00,,,0.20,weatherlink.com 1.10,2013-05-19 00:25:00,
2013-05-18 20:40:00,67.0,67.0,30.06,ENE,69,0.0,0.0,98,0.00,,,0.20,weatherlink.com 1.10,2013-05-19 00:40:00,
2013-05-18 20:55:00,66.8,66.0,30.05,ENE,69,0.0,0.0,98,0.00,,,0.20,weatherlink.com 1.10,2013-05-19 00:55:00,
2013-05-18 21:10:00,66.6,66.0,30.05,ENE,69,0.0,0.0,98,0.00,,,0.20,weatherlink.com 1.10,2013-05-19 01:10:00,
2013-05-18 21:25:00,66.5,66.0,30.05,ENE,69,0.0,0.0,98,0.00,,,0.20,weatherlink.com 1.10,2013-05-19 01:25:00,
2013-05-18 21:40:00,66.3,66.0,30.06,ENE,69,0.0,0.0,99,0.00,,,0.20,weatherlink.com 1.10,2013-05-19 01:40:00,
2013-05-18 21:55:00,66.3,66.0,30.06,ENE,69,0.0,1.0,99,0.00,,,0.20,weatherlink.com 1.10,2013-05-19 01:55:00,
2013-05-18 22:10:00,66.3,66.0,30.06,ENE,69,0.0,0.0,100,0.00,,,0.20,weatherlink.com 1.10,2013-05-19 02:10:00,
2013-05-18 22:25:00,66.3,66.0,30.06,ENE,69,0.0,1.0,100,0.00,,,0.20,weatherlink.com 1.10,2013-05-19 02:25:00,
2013-05-18 22:40:00,66.3,66.0,30.06,ENE,71,0.0,3.0,99,0.00,,,0.20,weatherlink.com 1.10,2013-05-19 02:40:00,
2013-05-18 22:55:00,66.1,66.0,30.06,ENE,71,0.0,1.0,99,0.00,,,0.20,weatherlink.com 1.10,2013-05-19 02:55:00,
2013-05-18 23:10:00,66.2,66.0,30.06,ESE,103,0.0,4.0,98,0.00,,,0.20,weatherlink.com 1.10,2013-05-19 03:10:00,
2013-05-18 23:25:00,66.1,66.0,30.06,East,100,1.0,5.0,98,0.00,,,0.20,weatherlink.com 1.10,2013-05-19 03:25:00,
2013-05-18 23:40:00,65.9,65.0,30.06,ESE,112,0.0,5.0,98,0.00,,,0.20,weatherlink.com 1.10,2013-05-19 03:40:00,
2013-05-18 23:55:00,65.7,65.0,30.06,ESE,110,1.0,4.0,98,0.00,,,0.20,weatherlink.com 1.10,2013-05-19 03:55:00,